Location: Lecco
(45.8566°N, 9.3977°E)
Time: 23:45:03
(UTC+02:00)

ISS - Pass Details

Date: 04 May 2019
Orbit: 407 x 410 km, 51.6° (Epoch: 20 May)

Event Time Altitude Azimuth Distance (km) Brightness Sun altitude
Exits shadow 03:35:49 19° 118° (ESE) 1,033 -1.7 -21.0°
Drops below altitude 10° 03:37:39 10° 86° (E) 1,476 -0.5 -20.8°
Sets 03:40:04 0° 70° (ENE) 2,342 1.0 -20.6°
